Regional Weather Roundup
Issued by NWS

Home | Current Version | Previous Version | Graphics & Text | Print | Product List | Glossary On
Versions: 1 2 3 4 5 6 7 8 9 10 11 12 13 14 15 16 17 18 19 20 21 22 23 24 25 26 27 28 29 30 31 32 33 34 35 36 37 38 39 40 41 42 43 44 45 46 47 48 49 50
000
ASUS43 KOAX 061702
RWRNE

WEATHER ROUNDUP FOR NEBRASKA
NATIONAL WEATHER SERVICE OMAHA NE
1100 AM CST SAT FEB 06 2016

NOTES: SATELLITE DATA IS BEING USED TO AUGMENT CLOUD COVER ABOVE
       12000 FEET.
       "FAIR" INDICATES FEW OR NO CLOUDS BELOW 12,000 FEET WITH NO
       SIGNIFICANT WEATHER AND/OR OBSTRUCTIONS TO VISIBILITY.

  * THESE STATIONS DO NOT REPORT WEATHER SUCH AS RAIN...SNOW OR FOG.

NEZ001>004-019>022-054>056-061800-
NEBRASKA PANHANDLE

CITY           SKY/WX    TMP DP  RH WIND       PRES   REMARKS
SCOTTSBLUFF    CLOUDY    33  19  56 CALM      30.14F
ALLIANCE       CLOUDY    30  22  72 W16       30.10S WCI  19
CHADRON        CLOUDY    34  22  61 SW7       30.11S WCI  28
KIMBALL        CLOUDY    33  21  61 W14       30.16S WCI  23
SIDNEY         CLOUDY    32  22  66 W14       30.16S WCI  22
$$

NEZ057>060-069>072-079>082-061800-
SOUTHWEST NEBRASKA

CITY           SKY/WX    TMP DP  RH WIND       PRES   REMARKS
NORTH PLATTE   CLOUDY    26  17  68 W10       30.17F WCI  16
IMPERIAL       CLOUDY    27  15  61 W12       30.20S WCI  17
MCCOOK         CLOUDY    24  13  62 W10       30.23S WCI  14
$$

NEZ005>010-023>029-035>040-094-061800-
NORTH CENTRAL NEBRASKA

CITY           SKY/WX    TMP DP  RH WIND       PRES   REMARKS
VALENTINE      SUNNY     39  24  55 W16       30.05F WCI  30
AINSWORTH      SUNNY     40  26  55 W12       30.04F WCI  34
BROKEN BOW     SUNNY     29  21  72 SW8       30.12F WCI  21
ORD            SUNNY     28  20  71 SW6       30.12F WCI  22
$$

NEZ041-046>049-061>064-073>077-083>087-061800-
SOUTH CENTRAL NEBRASKA

CITY           SKY/WX    TMP DP  RH WIND       PRES   REMARKS
GRAND ISLAND   SUNNY     28  18  66 SW12      30.19F WCI  18
HASTINGS       CLOUDY    25  16  68 SW8       30.21S WCI  16
HEBRON         SUNNY     26  20  78 SW9       30.27S WCI  17
$$

NEZ011>018-030>034-042>045-061800-
NORTHEAST NEBRASKA

CITY           SKY/WX    TMP DP  RH WIND       PRES   REMARKS
NORFOLK        CLOUDY    31  22  69 S10       30.12F WCI  22
COLUMBUS *     SUNNY     32  19  59 SW8       30.19F WCI  25
FREMONT        SUNNY     27  27  97 SW9       30.21S WCI  18
TEKAMAH        SUNNY     26  22  84 S10       30.21S WCI  16
$$

NEZ050>053-065>068-078-088>093-061800-
SOUTHEAST NEBRASKA

CITY           SKY/WX    TMP DP  RH WIND       PRES   REMARKS
LINCOLN        SUNNY     30  24  78 SW10      30.26R WCI  21
OMAHA EPPLEY   MOSUNNY   31  28  89 SW7       30.23R WCI  24
BEATRICE       SUNNY     33  27  77 SW10      30.26S WCI  25
FALLS CITY     SUNNY     39  31  72 SW8       30.28S WCI  33
NEBRASKA CITY  SUNNY     32  30  92 SW9       30.25F WCI  24
$$

NEZ044-045-051>053-067-061800-
OMAHA AREA

CITY           SKY/WX    TMP DP  RH WIND       PRES   REMARKS
OMAHA EPPLEY   MOSUNNY   31  28  89 SW7       30.23R WCI  24
FREMONT        SUNNY     27  27  97 SW9       30.21S WCI  18
OFFUTT AFB     SUNNY     29  28  99 S6        30.23F WCI  22
WAHOO          FAIR      28  27  96 SW8       30.22R WCI  20
$$



USA.gov is the U.S. government's official web portal to all federal, state and local government web resources and services.